CREW DRAGON 4 (52318 NORAD) Tracking and Keplerian Element Data

This shows tracking and keplerian element data for the satellite.

Feedback or suggestion? Click here.




ElementValue
Catalog52318
NameCREW DRAGON 4
Epoch Orbit34492
Epoch Day166.52417639
Epoch Year2022
RAAN344.8229
Inclination51.6445
Eccentricity0.0004279
Argument of Perigee240.9172
Mean Anonmoly215.6663
Mean Motion15.5001297
Decay Rate7.077E-05
L11 52318U 22042A 22166.52417639 .00007077 00000+0 13180-3 0 9999
L22 52318 51.6445 344.8229 0004279 240.9172 215.6663 15.50012970344926

Live tracking and technical data element details for CREW DRAGON 4 (NORAD 52318). CREW DRAGON 4 can be tracked NOW for your location showing map with azimuth and elevation plus other details from your city location.

Track the satellite on the map from your city or location and see movement details for azimuth, elevation, latitude, longitude, range, height, and movement on the map or in text.







IsCatalogInMostPopularTable: catalog: 52318, numindb: 2
Update: records affected: 1



GetName: 52318 CREW DRAGON 4

Hit Count: updated at: Mon, 27 Jun 2022 05:18:47 GMT